AXM523 VVTS-WMKK

Flight info

Callsign AXM523
Flight time N/A
Altitude 36000
Route NIXIV5A NIXIV L643 CN M765 BITOD/N0466F360 M765 IGARI R208 VKR Y346 PULIP PULIP1J
Aircraft A320/M-SDE3FGHIRWY/LB1

Departure

Time 2026-05-06 10:41
Airport Tan Son Nhat International Airport (VVTS)

Arrival

Time N/A
Airport Kuala Lumpur International Airport (WMKK)
Time Latitude Longitude Altitude Speed Heading
2026-05-06 10:17 10.81723 106.66315 36 ft 0 kts 160°
2026-05-06 10:32 10.81733 106.66311 35 ft 4 kts 161°
2026-05-06 10:32 10.81759 106.66302 35 ft 4 kts 162°
2026-05-06 10:32 10.81785 106.66295 34 ft 4 kts 167°
2026-05-06 10:33 10.81812 106.66291 36 ft 4 kts 185°
2026-05-06 10:33 10.81832 106.66298 37 ft 3 kts 245°
2026-05-06 10:33 10.81833 106.66300 37 ft 0 kts 248°
2026-05-06 10:35 10.81833 106.66295 37 ft 1 kts 261°
2026-05-06 10:35 10.81842 106.66294 36 ft 1 kts 360°
2026-05-06 10:36 10.81843 106.66304 37 ft 3 kts 76°
2026-05-06 10:36 10.81853 106.66352 35 ft 10 kts 75°
2026-05-06 10:36 10.81880 106.66428 37 ft 11 kts 68°
2026-05-06 10:36 10.81908 106.66495 37 ft 10 kts 67°
2026-05-06 10:37 10.81929 106.66556 37 ft 9 kts 69°
2026-05-06 10:37 10.81957 106.66617 36 ft 10 kts 52°
2026-05-06 10:37 10.82028 106.66621 33 ft 10 kts 341°
2026-05-06 10:37 10.82080 106.66644 34 ft 9 kts 59°
2026-05-06 10:38 10.82106 106.66722 33 ft 13 kts 70°
2026-05-06 10:38 10.82138 106.66805 32 ft 12 kts 68°
2026-05-06 10:38 10.82166 106.66880 32 ft 10 kts 70°
2026-05-06 10:38 10.82191 106.66948 34 ft 11 kts 69°
2026-05-06 10:39 10.82222 106.66999 35 ft 7 kts 34°
2026-05-06 10:39 10.82266 106.67000 35 ft 7 kts 348°
2026-05-06 10:39 10.82321 106.66974 35 ft 9 kts 310°
2026-05-06 10:39 10.82353 106.66929 35 ft 7 kts 300°
2026-05-06 10:40 10.82348 106.66896 34 ft 0 kts 246°
2026-05-06 10:40 10.82338 106.66872 34 ft 23 kts 248°
2026-05-06 10:41 10.82191 106.66473 33 ft 93 kts 249°
2026-05-06 10:41 10.81889 106.65673 37 ft 147 kts 249°
2026-05-06 10:41 10.81475 106.64578 224 ft 174 kts 250°
2026-05-06 10:41 10.81038 106.63412 790 ft 180 kts 248°
2026-05-06 10:42 10.80576 106.62211 1286 ft 192 kts 247°
2026-05-06 10:42 10.80070 106.60887 1620 ft 212 kts 247°
2026-05-06 10:42 10.79505 106.59404 1939 ft 237 kts 247°
2026-05-06 10:42 10.78879 106.57763 2327 ft 260 kts 248°
2026-05-06 10:43 10.78210 106.56008 2993 ft 271 kts 247°
2026-05-06 10:43 10.77205 106.54391 3755 ft 275 kts 219°
2026-05-06 10:43 10.75495 106.53563 4534 ft 276 kts 187°
2026-05-06 10:44 10.71669 106.53870 6106 ft 280 kts 166°
2026-05-06 10:44 10.69761 106.54306 6839 ft 283 kts 165°
2026-05-06 10:44 10.67828 106.54749 7587 ft 286 kts 166°
2026-05-06 10:44 10.65868 106.55160 8321 ft 289 kts 167°
2026-05-06 10:45 10.63877 106.55535 9051 ft 292 kts 168°
2026-05-06 10:45 10.61859 106.55882 9768 ft 296 kts 169°
2026-05-06 10:45 10.59796 106.56216 10190 ft 309 kts 169°
2026-05-06 10:45 10.57597 106.56566 10345 ft 331 kts 169°
2026-05-06 10:46 10.55278 106.56928 10779 ft 341 kts 170°
2026-05-06 10:46 10.52917 106.57293 11363 ft 345 kts 170°
2026-05-06 10:46 10.50525 106.57661 11984 ft 349 kts 170°
2026-05-06 10:46 10.48120 106.58035 12600 ft 352 kts 169°
2026-05-06 10:47 10.45686 106.58416 13206 ft 355 kts 169°
2026-05-06 10:47 10.43268 106.58795 13786 ft 358 kts 169°
2026-05-06 10:47 10.40793 106.59182 14321 ft 362 kts 169°
2026-05-06 10:47 10.38295 106.59573 14838 ft 364 kts 170°
2026-05-06 10:48 10.35779 106.59964 15365 ft 367 kts 170°
2026-05-06 10:48 10.33243 106.60356 15881 ft 370 kts 169°
2026-05-06 10:48 10.30686 106.60751 16400 ft 373 kts 169°
2026-05-06 10:48 10.28110 106.61152 16914 ft 376 kts 170°
2026-05-06 10:49 10.25515 106.61557 17413 ft 379 kts 170°
2026-05-06 10:49 10.22899 106.61966 17917 ft 382 kts 169°
2026-05-06 10:49 10.20290 106.62487 18369 ft 383 kts 163°
2026-05-06 10:49 10.17709 106.63214 18800 ft 386 kts 163°
2026-05-06 10:50 10.15103 106.63918 19222 ft 389 kts 167°
2026-05-06 10:50 10.12400 106.64230 19658 ft 394 kts 178°
2026-05-06 10:50 10.09652 106.64197 20100 ft 396 kts 179°
2026-05-06 10:50 10.06888 106.64162 20533 ft 399 kts 179°
2026-05-06 10:51 10.04104 106.64129 20964 ft 401 kts 179°
2026-05-06 10:51 10.01303 106.64099 21385 ft 404 kts 179°
2026-05-06 10:51 9.98480 106.64071 21821 ft 407 kts 179°
2026-05-06 10:51 9.95646 106.64042 22253 ft 409 kts 179°
2026-05-06 10:52 9.92793 106.64010 22684 ft 411 kts 179°
2026-05-06 10:52 9.89921 106.63975 23096 ft 414 kts 179°
2026-05-06 10:52 9.87037 106.63940 23486 ft 416 kts 179°
2026-05-06 10:52 9.84134 106.63908 23824 ft 418 kts 179°
2026-05-06 10:53 9.81211 106.63874 24145 ft 421 kts 179°
2026-05-06 10:53 9.78317 106.63841 24476 ft 422 kts 179°
2026-05-06 10:53 9.75371 106.63806 24780 ft 425 kts 179°
2026-05-06 10:53 9.72406 106.63746 25090 ft 427 kts 183°
2026-05-06 10:54 9.69496 106.63130 25416 ft 431 kts 199°
2026-05-06 10:54 9.66849 106.61691 25709 ft 436 kts 216°
2026-05-06 10:54 9.64629 106.59588 26010 ft 439 kts 224°
2026-05-06 10:54 9.62501 106.57361 26303 ft 440 kts 225°
2026-05-06 10:55 9.60372 106.55118 26609 ft 442 kts 225°
2026-05-06 10:55 9.58238 106.52867 26887 ft 444 kts 225°
2026-05-06 10:55 9.56090 106.50609 27170 ft 446 kts 225°
2026-05-06 10:55 9.53929 106.48346 27449 ft 447 kts 225°
2026-05-06 10:56 9.51758 106.46080 27707 ft 449 kts 224°
2026-05-06 10:56 9.49576 106.43805 27975 ft 451 kts 225°
2026-05-06 10:56 9.47388 106.41523 28244 ft 453 kts 224°
2026-05-06 10:56 9.45192 106.39229 28503 ft 454 kts 224°
2026-05-06 10:57 9.43017 106.36958 28746 ft 456 kts 225°
2026-05-06 10:57 9.40808 106.34650 29006 ft 457 kts 225°
2026-05-06 10:57 9.38593 106.32333 29282 ft 458 kts 225°
2026-05-06 10:57 9.36371 106.30013 29543 ft 459 kts 225°
2026-05-06 10:58 9.34141 106.27687 29786 ft 461 kts 225°
2026-05-06 10:58 9.31909 106.25358 30014 ft 462 kts 225°
2026-05-06 10:58 9.29667 106.23013 30195 ft 463 kts 224°
2026-05-06 10:58 9.27422 106.20666 30378 ft 465 kts 225°
2026-05-06 10:59 9.25170 106.18313 30561 ft 466 kts 225°
2026-05-06 10:59 9.22909 106.15955 30738 ft 467 kts 224°
2026-05-06 10:59 9.20639 106.13591 30919 ft 469 kts 224°
2026-05-06 10:59 9.18370 106.11228 31134 ft 468 kts 224°
2026-05-06 11:00 9.16097 106.08859 31400 ft 467 kts 224°
2026-05-06 11:00 9.13835 106.06498 31652 ft 467 kts 224°
2026-05-06 11:00 9.11576 106.04142 31904 ft 466 kts 224°
2026-05-06 11:00 9.09316 106.01789 32156 ft 466 kts 224°
2026-05-06 11:01 9.07062 105.99440 32425 ft 465 kts 224°
2026-05-06 11:01 9.04815 105.97092 32704 ft 464 kts 225°
2026-05-06 11:01 9.02574 105.94752 32978 ft 463 kts 224°
2026-05-06 11:01 9.00362 105.92448 33234 ft 462 kts 224°
2026-05-06 11:02 8.98122 105.90119 33495 ft 462 kts 224°
2026-05-06 11:02 8.95884 105.87794 33755 ft 461 kts 224°
2026-05-06 11:02 8.93646 105.85468 33979 ft 461 kts 224°
2026-05-06 11:02 8.91409 105.83145 34192 ft 461 kts 224°
2026-05-06 11:03 8.89177 105.80825 34408 ft 460 kts 224°
2026-05-06 11:03 8.86947 105.78506 34616 ft 460 kts 224°
2026-05-06 11:03 8.84722 105.76189 34809 ft 459 kts 224°
2026-05-06 11:03 8.82496 105.73874 35009 ft 459 kts 224°
2026-05-06 11:04 8.80273 105.71560 35198 ft 459 kts 224°
2026-05-06 11:04 8.78052 105.69244 35378 ft 458 kts 225°
2026-05-06 11:04 8.75833 105.66933 35570 ft 458 kts 225°
2026-05-06 11:04 8.73612 105.64624 35759 ft 457 kts 224°
2026-05-06 11:05 8.71393 105.62320 35841 ft 456 kts 225°
2026-05-06 11:05 8.66981 105.57753 35852 ft 453 kts 225°
2026-05-06 11:06 8.62589 105.53201 35850 ft 452 kts 225°
2026-05-06 11:06 8.58199 105.48644 35852 ft 452 kts 225°
2026-05-06 11:07 8.53813 105.44082 35852 ft 452 kts 225°
2026-05-06 11:07 8.49432 105.39533 35850 ft 452 kts 225°
2026-05-06 11:08 8.45070 105.35014 35850 ft 452 kts 225°
2026-05-06 11:08 8.40673 105.30466 35850 ft 452 kts 225°
2026-05-06 11:09 8.36278 105.25920 35847 ft 452 kts 224°
2026-05-06 11:09 8.31884 105.21377 35851 ft 452 kts 224°
2026-05-06 11:10 8.27491 105.16832 35852 ft 452 kts 224°
2026-05-06 11:10 8.23102 105.12289 35855 ft 452 kts 225°
2026-05-06 11:11 8.18715 105.07745 35857 ft 452 kts 225°
2026-05-06 11:11 8.14322 105.03206 35856 ft 452 kts 225°
2026-05-06 11:12 8.09937 104.98667 35854 ft 451 kts 225°
2026-05-06 11:12 8.05666 104.94257 35848 ft 452 kts 225°
2026-05-06 11:13 8.01274 104.89722 35842 ft 452 kts 225°
2026-05-06 11:13 7.96906 104.85210 35841 ft 453 kts 225°
2026-05-06 11:14 7.92496 104.80662 35839 ft 454 kts 225°
2026-05-06 11:14 7.88089 104.76103 35845 ft 454 kts 225°
2026-05-06 11:15 7.83681 104.71536 35849 ft 454 kts 225°
2026-05-06 11:15 7.79256 104.66985 35853 ft 455 kts 225°
2026-05-06 11:16 7.74829 104.62433 35854 ft 454 kts 225°
2026-05-06 11:16 7.70407 104.57872 35855 ft 454 kts 225°
2026-05-06 11:17 7.65997 104.53319 35854 ft 454 kts 224°
2026-05-06 11:17 7.61579 104.48766 35854 ft 454 kts 224°
2026-05-06 11:18 7.57190 104.44255 35851 ft 454 kts 224°
2026-05-06 11:18 7.52774 104.39710 35849 ft 453 kts 224°
2026-05-06 11:19 7.48365 104.35171 35844 ft 453 kts 225°
2026-05-06 11:19 7.43464 104.31264 35843 ft 450 kts 210°
2026-05-06 11:20 7.38078 104.28050 35838 ft 450 kts 209°
2026-05-06 11:20 7.32675 104.24850 35830 ft 451 kts 209°
2026-05-06 11:21 7.27269 104.21637 35830 ft 452 kts 209°
2026-05-06 11:21 7.21874 104.18412 35839 ft 452 kts 210°
2026-05-06 11:22 7.16502 104.15204 35846 ft 452 kts 209°
2026-05-06 11:22 7.11098 104.11982 35849 ft 451 kts 210°
2026-05-06 11:23 7.05689 104.08766 35852 ft 451 kts 210°
2026-05-06 11:23 7.00282 104.05553 35845 ft 451 kts 209°
2026-05-06 11:24 6.94879 104.02335 35840 ft 452 kts 209°
2026-05-06 11:24 6.89469 103.99108 35838 ft 452 kts 209°
2026-05-06 11:25 6.84968 103.96436 35839 ft 452 kts 209°
2026-05-06 11:25 6.79550 103.93218 35839 ft 452 kts 209°
2026-05-06 11:26 6.74133 103.89995 35837 ft 452 kts 209°
2026-05-06 11:26 6.68720 103.86774 35838 ft 452 kts 209°
2026-05-06 11:27 6.63299 103.83556 35844 ft 452 kts 209°
2026-05-06 11:27 6.57885 103.80341 35840 ft 452 kts 209°
2026-05-06 11:28 6.52496 103.77148 35837 ft 453 kts 209°
2026-05-06 11:28 6.47068 103.73931 35840 ft 453 kts 209°
2026-05-06 11:29 6.41646 103.70700 35846 ft 453 kts 209°
2026-05-06 11:29 6.36219 103.67469 35846 ft 453 kts 209°
2026-05-06 11:30 6.30788 103.64257 35844 ft 453 kts 209°
2026-05-06 11:30 6.25358 103.61038 35849 ft 453 kts 209°
2026-05-06 11:31 6.19929 103.57820 35844 ft 453 kts 209°
2026-05-06 11:31 6.14502 103.54595 35845 ft 453 kts 209°
2026-05-06 11:32 6.09078 103.51368 35848 ft 453 kts 209°
2026-05-06 11:32 6.03691 103.48180 35851 ft 453 kts 209°
2026-05-06 11:33 5.98265 103.44978 35845 ft 452 kts 209°
2026-05-06 11:33 5.92891 103.41789 35852 ft 452 kts 209°
2026-05-06 11:34 5.87477 103.38586 35851 ft 451 kts 209°
2026-05-06 11:34 5.82068 103.35387 35851 ft 451 kts 209°
2026-05-06 11:35 5.76661 103.32186 35847 ft 451 kts 209°
2026-05-06 11:35 5.71261 103.28989 35842 ft 451 kts 209°
2026-05-06 11:36 5.65857 103.25791 35841 ft 451 kts 209°
2026-05-06 11:36 5.60520 103.22630 35840 ft 451 kts 209°
2026-05-06 11:37 5.55152 103.19453 35839 ft 451 kts 209°
2026-05-06 11:37 5.49757 103.16265 35838 ft 450 kts 209°
2026-05-06 11:38 5.44360 103.13084 35839 ft 450 kts 209°
2026-05-06 11:38 5.39069 103.09730 35811 ft 451 kts 219°
2026-05-06 11:39 5.34977 103.04979 35803 ft 453 kts 239°
2026-05-06 11:39 5.32433 102.99205 35803 ft 454 kts 247°
2026-05-06 11:40 5.30065 102.93334 35806 ft 454 kts 247°
2026-05-06 11:40 5.27681 102.87467 35813 ft 454 kts 247°
2026-05-06 11:41 5.25295 102.81592 35820 ft 455 kts 247°
2026-05-06 11:41 5.22910 102.75715 35830 ft 455 kts 245°
2026-05-06 11:42 5.19537 102.70464 35821 ft 451 kts 225°
2026-05-06 11:42 5.14598 102.66689 35816 ft 447 kts 206°
2026-05-06 11:43 5.09076 102.63804 35813 ft 448 kts 206°
2026-05-06 11:43 5.03554 102.60904 35803 ft 448 kts 206°
2026-05-06 11:44 4.95257 102.56536 35810 ft 449 kts 206°
2026-05-06 11:44 4.89720 102.53628 35807 ft 449 kts 206°
2026-05-06 11:45 4.84178 102.50724 35812 ft 449 kts 206°
2026-05-06 11:45 4.78631 102.47825 35805 ft 450 kts 206°
2026-05-06 11:46 4.73084 102.44929 35803 ft 450 kts 206°
2026-05-06 11:46 4.67572 102.42047 35804 ft 450 kts 206°
2026-05-06 11:47 4.62030 102.39138 35804 ft 450 kts 206°
2026-05-06 11:47 4.56476 102.36233 35795 ft 451 kts 206°
2026-05-06 11:48 4.50915 102.33319 35785 ft 451 kts 206°
2026-05-06 11:48 4.45344 102.30408 35781 ft 452 kts 206°
2026-05-06 11:49 4.39773 102.27495 35782 ft 452 kts 206°
2026-05-06 11:49 4.34199 102.24586 35783 ft 452 kts 206°
2026-05-06 11:50 4.28620 102.21676 35780 ft 452 kts 206°
2026-05-06 11:50 4.23045 102.18755 35409 ft 451 kts 206°
2026-05-06 11:51 4.20272 102.17305 34892 ft 448 kts 206°
2026-05-06 11:51 4.17514 102.15865 34349 ft 446 kts 206°
2026-05-06 11:51 4.14763 102.14429 33816 ft 445 kts 206°
2026-05-06 11:51 4.12057 102.13017 33242 ft 443 kts 206°
2026-05-06 11:52 4.09334 102.11598 32720 ft 440 kts 206°
2026-05-06 11:52 4.06627 102.10189 32193 ft 437 kts 206°
2026-05-06 11:52 4.03936 102.08783 31668 ft 435 kts 206°
2026-05-06 11:52 4.01258 102.07384 31172 ft 433 kts 206°
2026-05-06 11:53 3.98594 102.05993 30656 ft 431 kts 206°
2026-05-06 11:53 3.95939 102.04606 30163 ft 430 kts 206°
2026-05-06 11:53 3.93296 102.03226 29644 ft 428 kts 206°
2026-05-06 11:53 3.90670 102.01855 29149 ft 423 kts 206°
2026-05-06 11:54 3.88089 102.00510 28671 ft 411 kts 206°
2026-05-06 11:54 3.85584 101.99203 28240 ft 404 kts 206°
2026-05-06 11:54 3.83104 101.97909 27796 ft 401 kts 206°
2026-05-06 11:54 3.80639 101.96618 27342 ft 399 kts 206°
2026-05-06 11:55 3.78185 101.95334 26904 ft 397 kts 206°
2026-05-06 11:55 3.75744 101.94061 26448 ft 395 kts 206°
2026-05-06 11:55 3.73315 101.92796 26006 ft 393 kts 206°
2026-05-06 11:55 3.70893 101.91534 25546 ft 392 kts 205°
2026-05-06 11:56 3.68431 101.90378 25068 ft 389 kts 197°
2026-05-06 11:56 3.65824 101.89705 24602 ft 386 kts 186°
2026-05-06 11:56 3.63199 101.89524 24147 ft 383 kts 180°
2026-05-06 11:56 3.60535 101.89439 23681 ft 383 kts 180°
2026-05-06 11:57 3.57875 101.89353 23182 ft 382 kts 180°
2026-05-06 11:57 3.55224 101.89264 22697 ft 380 kts 180°
2026-05-06 11:57 3.52588 101.89174 22235 ft 378 kts 180°
2026-05-06 11:57 3.49968 101.89083 21776 ft 376 kts 180°
2026-05-06 11:58 3.47359 101.88992 21315 ft 374 kts 180°
2026-05-06 11:58 3.44761 101.88900 20863 ft 373 kts 180°
2026-05-06 11:58 3.42176 101.88809 20410 ft 372 kts 180°
2026-05-06 11:58 3.39595 101.88719 19960 ft 371 kts 180°
2026-05-06 11:59 3.37021 101.88629 19500 ft 370 kts 180°
2026-05-06 11:59 3.34448 101.88542 19055 ft 369 kts 180°
2026-05-06 11:59 3.31887 101.88455 18606 ft 369 kts 180°
2026-05-06 11:59 3.29321 101.88365 18218 ft 367 kts 180°
2026-05-06 12:00 3.26770 101.88273 17729 ft 367 kts 180°
2026-05-06 12:00 3.24247 101.88182 17278 ft 358 kts 180°
2026-05-06 12:00 3.21793 101.88095 16780 ft 347 kts 180°